Time,TemperatureF,DewpointF,PressureIn,WindDirection,WindDirectionDegrees,WindSpeedMPH,WindSpeedGustMPH,Humidity,HourlyPrecipIn,Conditions,Clouds,dailyrainin,SoftwareType,DateUTC
2013-01-16 00:10:00,25.1,18.6,30.10,NNE,20,0.0,1.0,76,0.00,,,0.00,Wunderground v.1.12,2013-01-16 05:10:00,
2013-01-16 00:20:00,25.0,18.8,30.09,NNE,20,0.0,0.0,77,0.00,,,0.00,Wunderground v.1.12,2013-01-16 05:20:00,
2013-01-16 00:30:00,24.8,18.6,30.09,N/A,-737280,0.0,0.0,77,0.00,,,0.00,Wunderground v.1.12,2013-01-16 05:30:00,
2013-01-16 00:40:00,24.8,18.6,30.09,NNE,20,0.0,0.0,77,0.00,,,0.00,Wunderground v.1.12,2013-01-16 05:40:00,
2013-01-16 00:50:00,24.8,18.9,30.09,NNE,20,0.0,0.0,78,0.00,,,0.00,Wunderground v.1.12,2013-01-16 05:50:00,
2013-01-16 01:00:00,24.8,18.9,30.07,N/A,-737280,0.0,0.0,78,0.00,,,0.00,Wunderground v.1.12,2013-01-16 06:00:00,
2013-01-16 01:10:00,24.7,18.8,30.07,NNE,20,0.0,0.0,78,0.00,,,0.00,Wunderground v.1.12,2013-01-16 06:10:00,
2013-01-16 01:20:00,24.7,18.8,30.06,NNE,20,0.0,0.0,78,0.00,,,0.00,Wunderground v.1.12,2013-01-16 06:20:00,
2013-01-16 01:30:00,24.5,18.9,30.06,N/A,-737280,0.0,0.0,79,0.00,,,0.00,Wunderground v.1.12,2013-01-16 06:30:00,
2013-01-16 01:40:00,24.4,18.8,30.06,NNE,20,0.0,0.0,79,0.00,,,0.00,Wunderground v.1.12,2013-01-16 06:40:00,
2013-01-16 01:50:00,24.4,18.8,30.06,NNE,20,0.0,0.0,79,0.00,,,0.00,Wunderground v.1.12,2013-01-16 06:50:00,
2013-01-16 02:00:00,24.2,18.9,30.05,N/A,-737280,0.0,0.0,80,0.00,,,0.00,Wunderground v.1.12,2013-01-16 07:00:00,
2013-01-16 02:10:00,24.2,18.9,30.05,NNE,20,0.0,0.0,80,0.00,,,0.00,Wunderground v.1.12,2013-01-16 07:10:00,
2013-01-16 02:20:00,24.2,19.2,30.04,NNE,20,0.0,0.0,81,0.00,,,0.00,Wunderground v.1.12,2013-01-16 07:20:00,
2013-01-16 02:40:00,24.1,19.1,30.03,NNE,23,0.0,1.0,81,0.00,,,0.00,Wunderground v.1.12,2013-01-16 07:40:00,
2013-01-16 02:50:00,24.1,19.1,30.04,NNE,14,0.0,0.0,81,0.00,,,0.00,Wunderground v.1.12,2013-01-16 07:50:00,
2013-01-16 03:00:00,24.1,19.4,30.05,North,0,1.0,5.0,82,0.00,,,0.00,Wunderground v.1.12,2013-01-16 08:00:00,
2013-01-16 03:10:00,24.1,19.4,30.05,North,359,0.0,0.0,82,0.00,,,0.00,Wunderground v.1.12,2013-01-16 08:10:00,
2013-01-16 03:20:00,24.1,19.4,30.04,North,0,0.0,0.0,82,0.00,,,0.00,Wunderground v.1.12,2013-01-16 08:20:00,
2013-01-16 03:30:00,24.1,19.4,30.04,N/A,-737280,0.0,0.0,82,0.00,,,0.00,Wunderground v.1.12,2013-01-16 08:30:00,
2013-01-16 03:40:00,24.1,19.4,30.04,North,0,0.0,0.0,82,0.00,,,0.00,Wunderground v.1.12,2013-01-16 08:40:00,
2013-01-16 03:50:00,24.1,19.4,30.04,North,0,0.0,0.0,82,0.00,,,0.00,Wunderground v.1.12,2013-01-16 08:50:00,
2013-01-16 04:00:00,24.1,19.4,30.02,N/A,-737280,0.0,0.0,82,0.00,,,0.00,Wunderground v.1.12,2013-01-16 09:00:00,
2013-01-16 04:10:00,23.9,19.2,30.02,North,0,0.0,0.0,82,0.00,,,0.00,Wunderground v.1.12,2013-01-16 09:10:00,
2013-01-16 04:20:00,23.9,19.2,30.01,North,0,0.0,0.0,82,0.00,,,0.00,Wunderground v.1.12,2013-01-16 09:20:00,
2013-01-16 04:30:00,23.9,19.2,30.01,N/A,-737280,0.0,0.0,82,0.00,,,0.00,Wunderground v.1.12,2013-01-16 09:30:00,
2013-01-16 04:40:00,23.9,19.2,30.01,North,0,0.0,0.0,82,0.00,,,0.00,Wunderground v.1.12,2013-01-16 09:40:00,
2013-01-16 04:50:00,23.8,19.1,30.02,North,0,0.0,0.0,82,0.00,,,0.00,Wunderground v.1.12,2013-01-16 09:50:00,
2013-01-16 05:00:00,23.6,18.9,30.00,N/A,-737280,0.0,0.0,82,0.00,,,0.00,Wunderground v.1.12,2013-01-16 10:00:00,
2013-01-16 05:10:00,23.6,19.2,30.00,North,356,0.0,0.0,83,0.00,,,0.00,Wunderground v.1.12,2013-01-16 10:10:00,
2013-01-16 05:20:00,23.6,19.2,29.99,North,354,0.0,0.0,83,0.00,,,0.00,Wunderground v.1.12,2013-01-16 10:20:00,
2013-01-16 05:30:00,23.6,19.2,29.98,N/A,-737280,0.0,0.0,83,0.00,,,0.00,Wunderground v.1.12,2013-01-16 10:30:00,
2013-01-16 05:40:00,23.8,19.4,29.98,North,0,0.0,0.0,83,0.00,,,0.00,Wunderground v.1.12,2013-01-16 10:40:00,
2013-01-16 05:50:00,23.8,19.4,29.98,North,354,0.0,0.0,83,0.00,,,0.00,Wunderground v.1.12,2013-01-16 10:50:00,
2013-01-16 06:00:00,23.9,19.5,29.97,N/A,-737280,0.0,0.0,83,0.00,,,0.00,Wunderground v.1.12,2013-01-16 11:00:00,
2013-01-16 06:10:00,24.1,19.7,29.97,North,0,0.0,0.0,83,0.00,,,0.00,Wunderground v.1.12,2013-01-16 11:10:00,
2013-01-16 06:20:00,24.1,19.7,29.96,North,359,0.0,0.0,83,0.00,,,0.00,Wunderground v.1.12,2013-01-16 11:20:00,
2013-01-16 06:30:00,24.1,19.4,29.95,N/A,-737280,0.0,0.0,82,0.00,,,0.00,Wunderground v.1.12,2013-01-16 11:30:00,
2013-01-16 06:40:00,23.9,19.2,29.95,North,356,0.0,0.0,82,0.00,,,0.00,Wunderground v.1.12,2013-01-16 11:40:00,
2013-01-16 06:50:00,23.8,19.1,29.97,N/A,-737280,0.0,0.0,82,0.00,,,0.00,Wunderground v.1.12,2013-01-16 11:50:00,
2013-01-16 07:00:00,23.6,18.9,29.96,N/A,-737280,0.0,0.0,82,0.00,,,0.00,Wunderground v.1.12,2013-01-16 12:00:00,
2013-01-16 07:10:00,23.5,19.1,29.96,North,356,0.0,0.0,83,0.00,,,0.00,Wunderground v.1.12,2013-01-16 12:10:00,
2013-01-16 07:20:00,23.2,18.8,29.95,North,356,0.0,0.0,83,0.00,,,0.00,Wunderground v.1.12,2013-01-16 12:20:00,
2013-01-16 07:30:00,22.9,18.5,29.95,N/A,-737280,0.0,0.0,83,0.00,,,0.00,Wunderground v.1.12,2013-01-16 12:30:00,
2013-01-16 07:40:00,22.7,18.6,29.95,North,359,0.0,0.0,84,0.00,,,0.00,Wunderground v.1.12,2013-01-16 12:40:00,
2013-01-16 07:50:00,22.5,18.4,29.96,North,354,0.0,0.0,84,0.00,,,0.00,Wunderground v.1.12,2013-01-16 12:50:00,
2013-01-16 08:00:00,22.4,18.3,29.94,N/A,-737280,0.0,0.0,84,0.00,,,0.00,Wunderground v.1.12,2013-01-16 13:00:00,
2013-01-16 08:10:00,22.2,18.1,29.95,North,357,0.0,0.0,84,0.00,,,0.00,Wunderground v.1.12,2013-01-16 13:10:00,
2013-01-16 08:20:00,22.2,18.4,29.95,North,356,0.0,0.0,85,0.00,,,0.00,Wunderground v.1.12,2013-01-16 13:20:00,
2013-01-16 08:30:00,22.2,18.4,29.94,N/A,-737280,0.0,0.0,85,0.00,,,0.00,Wunderground v.1.12,2013-01-16 13:30:00,
2013-01-16 08:40:00,22.4,18.6,29.94,North,354,0.0,0.0,85,0.00,,,0.00,Wunderground v.1.12,2013-01-16 13:40:00,
2013-01-16 08:50:00,22.5,18.9,29.94,North,356,0.0,0.0,86,0.00,,,0.00,Wunderground v.1.12,2013-01-16 13:50:00,
2013-01-16 09:00:00,22.7,19.1,29.93,N/A,-737280,0.0,0.0,86,0.00,,,0.00,Wunderground v.1.12,2013-01-16 14:00:00,
2013-01-16 09:10:00,22.9,19.3,29.93,North,356,0.0,0.0,86,0.00,,,0.00,Wunderground v.1.12,2013-01-16 14:10:00,
2013-01-16 09:20:00,23.0,19.4,29.92,N/A,-737280,0.0,0.0,86,0.00,,,0.00,Wunderground v.1.12,2013-01-16 14:20:00,
2013-01-16 09:30:00,24.4,21.1,29.92,N/A,-737280,0.0,0.0,87,0.00,,,0.00,Wunderground v.1.12,2013-01-16 14:30:00,
2013-01-16 09:40:00,25.4,21.8,29.92,North,354,0.0,0.0,86,0.00,,,0.00,Wunderground v.1.12,2013-01-16 14:40:00,
2013-01-16 09:50:00,26.4,22.5,29.92,WSW,243,2.0,4.0,85,0.00,,,0.00,Wunderground v.1.12,2013-01-16 14:50:00,
2013-01-16 10:10:00,27.3,22.8,29.94,WSW,248,3.0,8.0,83,0.00,,,0.00,Wunderground v.1.12,2013-01-16 15:10:00,
2013-01-16 10:20:00,28.8,23.1,29.94,WNW,288,4.0,4.0,79,0.00,,,0.00,Wunderground v.1.12,2013-01-16 15:20:00,
2013-01-16 10:30:00,29.1,23.1,29.94,West,270,4.0,11.0,78,0.00,,,0.00,Wunderground v.1.12,2013-01-16 15:30:00,
2013-01-16 10:40:00,30.0,23.7,29.94,WSW,247,2.0,6.0,77,0.00,,,0.00,Wunderground v.1.12,2013-01-16 15:40:00,
2013-01-16 10:50:00,30.3,23.0,29.93,WNW,282,5.0,12.0,74,0.00,,,0.00,Wunderground v.1.12,2013-01-16 15:50:00,
2013-01-16 11:00:00,30.6,23.0,29.92,SW,225,6.0,13.0,73,0.00,,,0.00,Wunderground v.1.12,2013-01-16 16:00:00,
2013-01-16 11:10:00,31.0,22.7,29.92,West,281,6.0,6.0,71,0.00,,,0.00,Wunderground v.1.12,2013-01-16 16:10:00,
2013-01-16 11:20:00,31.3,22.6,29.91,West,263,6.0,6.0,70,0.00,,,0.00,Wunderground v.1.12,2013-01-16 16:20:00,
2013-01-16 11:30:00,32.1,23.1,29.92,WSW,248,6.0,17.0,69,0.00,,,0.00,Wunderground v.1.12,2013-01-16 16:30:00,
2013-01-16 11:40:00,32.2,22.5,29.92,West,264,7.0,7.0,67,0.00,,,0.00,Wunderground v.1.12,2013-01-16 16:40:00,
2013-01-16 11:50:00,32.2,21.7,29.91,West,270,7.0,19.0,65,0.00,,,0.00,Wunderground v.1.12,2013-01-16 16:50:00,
2013-01-16 12:00:00,32.7,21.1,29.90,West,270,6.0,15.0,62,0.00,,,0.00,Wunderground v.1.12,2013-01-16 17:00:00,
2013-01-16 12:10:00,33.2,20.4,29.90,WSW,250,7.0,7.0,59,0.00,,,0.00,Wunderground v.1.12,2013-01-16 17:10:00,
2013-01-16 12:20:00,33.5,19.5,29.88,West,272,8.0,8.0,56,0.00,,,0.00,Wunderground v.1.12,2013-01-16 17:20:00,
2013-01-16 12:30:00,33.7,20.1,29.88,WSW,248,8.0,18.0,57,0.00,,,0.00,Wunderground v.1.12,2013-01-16 17:30:00,
2013-01-16 12:40:00,33.8,19.7,29.88,WSW,256,8.0,9.0,56,0.00,,,0.00,Wunderground v.1.12,2013-01-16 17:40:00,
2013-01-16 12:50:00,34.6,19.6,29.86,WSW,240,6.0,6.0,54,0.00,,,0.00,Wunderground v.1.12,2013-01-16 17:50:00,
2013-01-16 13:00:00,34.9,21.2,29.85,WSW,248,7.0,15.0,57,0.00,,,0.00,Wunderground v.1.12,2013-01-16 18:00:00,
2013-01-16 13:10:00,35.0,20.0,29.85,SSW,208,6.0,6.0,54,0.00,,,0.00,Wunderground v.1.12,2013-01-16 18:10:00,
2013-01-16 13:20:00,35.3,19.9,29.84,SW,225,7.0,14.0,53,0.00,,,0.00,Wunderground v.1.12,2013-01-16 18:20:00,
2013-01-16 13:30:00,36.0,17.7,29.84,WSW,248,7.0,14.0,47,0.00,,,0.00,Wunderground v.1.12,2013-01-16 18:30:00,
2013-01-16 13:40:00,36.5,19.1,29.84,WSW,253,7.0,10.0,49,0.00,,,0.00,Wunderground v.1.12,2013-01-16 18:40:00,
2013-01-16 13:50:00,36.9,19.0,29.83,WSW,246,8.0,11.0,48,0.00,,,0.00,Wunderground v.1.12,2013-01-16 18:50:00,
2013-01-16 14:00:00,37.0,18.6,29.83,SW,225,9.0,18.0,47,0.00,,,0.00,Wunderground v.1.12,2013-01-16 19:00:00,
2013-01-16 14:10:00,37.2,17.3,29.83,West,268,9.0,14.0,44,0.00,,,0.00,Wunderground v.1.12,2013-01-16 19:10:00,
2013-01-16 14:20:00,37.6,18.7,29.83,SW,232,9.0,9.0,46,0.00,,,0.00,Wunderground v.1.12,2013-01-16 19:20:00,
2013-01-16 14:30:00,37.9,17.4,29.82,WSW,248,9.0,18.0,43,0.00,,,0.00,Wunderground v.1.12,2013-01-16 19:30:00,
2013-01-16 14:40:00,38.2,17.6,29.82,WSW,239,8.0,12.0,43,0.00,,,0.00,Wunderground v.1.12,2013-01-16 19:40:00,
2013-01-16 14:50:00,38.5,19.0,29.82,WSW,240,7.0,7.0,45,0.00,,,0.00,Wunderground v.1.12,2013-01-16 19:50:00,
2013-01-16 15:10:00,38.8,18.2,29.82,SW,216,9.0,13.0,43,0.00,,,0.00,Wunderground v.1.12,2013-01-16 20:10:00,
2013-01-16 15:20:00,38.5,18.4,29.82,SSW,210,9.0,9.0,44,0.00,,,0.00,Wunderground v.1.12,2013-01-16 20:20:00,
2013-01-16 15:30:00,38.8,18.2,29.82,WSW,248,7.0,14.0,43,0.00,,,0.00,Wunderground v.1.12,2013-01-16 20:30:00,
2013-01-16 15:40:00,38.8,17.6,29.82,WSW,257,7.0,7.0,42,0.00,,,0.00,Wunderground v.1.12,2013-01-16 20:40:00,
2013-01-16 15:50:00,38.5,18.4,29.82,West,263,7.0,7.0,44,0.00,,,0.00,Wunderground v.1.12,2013-01-16 20:50:00,
2013-01-16 16:00:00,38.2,19.2,29.83,WSW,248,8.0,22.0,46,0.00,,,0.00,Wunderground v.1.12,2013-01-16 21:00:00,
2013-01-16 16:10:00,37.9,19.4,29.82,WSW,239,8.0,11.0,47,0.00,,,0.00,Wunderground v.1.12,2013-01-16 21:10:00,
2013-01-16 16:20:00,37.3,19.4,29.83,WSW,246,9.0,11.0,48,0.00,,,0.00,Wunderground v.1.12,2013-01-16 21:20:00,
2013-01-16 16:30:00,36.9,20.0,29.83,SW,225,8.0,19.0,50,0.00,,,0.00,Wunderground v.1.12,2013-01-16 21:30:00,
2013-01-16 16:40:00,36.2,19.8,29.83,SSW,196,8.0,8.0,51,0.00,,,0.00,Wunderground v.1.12,2013-01-16 21:40:00,
2013-01-16 16:50:00,36.0,19.6,29.83,SW,225,9.0,18.0,51,0.00,,,0.00,Wunderground v.1.12,2013-01-16 21:50:00,
2013-01-16 17:00:00,35.6,20.1,29.84,SW,225,7.0,16.0,53,0.00,,,0.00,Wunderground v.1.12,2013-01-16 22:00:00,
2013-01-16 17:10:00,35.2,19.8,29.84,SW,236,8.0,8.0,53,0.00,,,0.00,Wunderground v.1.12,2013-01-16 22:10:00,
2013-01-16 17:30:00,34.6,20.5,29.85,SW,225,6.0,14.0,56,0.00,,,0.00,Wunderground v.1.12,2013-01-16 22:30:00,
2013-01-16 17:40:00,34.3,20.6,29.85,SSW,208,6.0,8.0,57,0.00,,,0.00,Wunderground v.1.12,2013-01-16 22:40:00,
2013-01-16 17:50:00,34.0,21.6,29.86,SSW,206,5.0,5.0,60,0.00,,,0.00,Wunderground v.1.12,2013-01-16 22:50:00,
2013-01-16 18:10:00,33.5,21.5,29.86,SW,223,7.0,9.0,61,0.00,,,0.00,Wunderground v.1.12,2013-01-16 23:10:00,
2013-01-16 18:20:00,33.4,21.0,29.86,SSW,208,8.0,10.0,60,0.00,,,0.00,Wunderground v.1.12,2013-01-16 23:20:00,
2013-01-16 18:30:00,33.2,20.8,29.86,SW,225,7.0,17.0,60,0.00,,,0.00,Wunderground v.1.12,2013-01-16 23:30:00,
2013-01-16 18:40:00,33.2,20.8,29.86,WSW,237,7.0,10.0,60,0.00,,,0.00,Wunderground v.1.12,2013-01-16 23:40:00,
2013-01-16 18:50:00,33.4,21.0,29.87,SW,225,8.0,18.0,60,0.00,,,0.00,Wunderground v.1.12,2013-01-16 23:50:00,
2013-01-16 19:00:00,33.7,20.9,29.87,SW,225,8.0,18.0,59,0.00,,,0.00,Wunderground v.1.12,2013-01-17 00:00:00,
2013-01-16 19:10:00,33.7,20.9,29.87,SW,223,8.0,10.0,59,0.00,,,0.00,Wunderground v.1.12,2013-01-17 00:10:00,
2013-01-16 19:20:00,33.8,21.0,29.87,WSW,253,8.0,8.0,59,0.00,,,0.00,Wunderground v.1.12,2013-01-17 00:20:00,
2013-01-16 19:40:00,34.1,20.9,29.88,SW,226,8.0,10.0,58,0.00,,,0.00,Wunderground v.1.12,2013-01-17 00:40:00,
2013-01-16 19:50:00,34.1,20.9,29.88,WSW,250,8.0,8.0,58,0.00,,,0.00,Wunderground v.1.12,2013-01-17 00:50:00,
2013-01-16 20:00:00,34.3,20.6,29.88,WSW,248,8.0,19.0,57,0.00,,,0.00,Wunderground v.1.12,2013-01-17 01:00:00,
2013-01-16 20:10:00,34.3,20.6,29.88,WNW,282,7.0,7.0,57,0.00,,,0.00,Wunderground v.1.12,2013-01-17 01:10:00,
2013-01-16 20:20:00,34.3,20.6,29.88,WSW,253,10.0,11.0,57,0.00,,,0.00,Wunderground v.1.12,2013-01-17 01:20:00,
2013-01-16 20:30:00,34.3,21.0,29.89,WSW,248,10.0,24.0,58,0.00,,,0.00,Wunderground v.1.12,2013-01-17 01:30:00,
2013-01-16 20:40:00,34.4,21.5,29.89,WSW,254,8.0,12.0,59,0.00,,,0.00,Wunderground v.1.12,2013-01-17 01:40:00,
2013-01-16 20:50:00,34.3,21.4,29.90,WSW,257,8.0,8.0,59,0.00,,,0.00,Wunderground v.1.12,2013-01-17 01:50:00,
2013-01-16 21:00:00,34.3,21.8,29.90,WSW,248,8.0,19.0,60,0.00,,,0.00,Wunderground v.1.12,2013-01-17 02:00:00,
2013-01-16 21:10:00,34.3,21.8,29.90,WSW,240,10.0,10.0,60,0.00,,,0.00,Wunderground v.1.12,2013-01-17 02:10:00,
2013-01-16 21:20:00,34.1,21.7,29.90,South,179,9.0,10.0,60,0.00,,,0.00,Wunderground v.1.12,2013-01-17 02:20:00,
2013-01-16 21:30:00,34.0,22.0,29.91,WSW,248,8.0,21.0,61,0.00,,,0.00,Wunderground v.1.12,2013-01-17 02:30:00,
2013-01-16 21:40:00,33.8,22.1,29.91,West,260,9.0,10.0,62,0.00,,,0.00,Wunderground v.1.12,2013-01-17 02:40:00,
2013-01-16 21:50:00,34.0,22.7,29.92,West,263,9.0,12.0,63,0.00,,,0.00,Wunderground v.1.12,2013-01-17 02:50:00,
2013-01-16 22:00:00,34.0,22.7,29.92,West,270,8.0,19.0,63,0.00,,,0.00,Wunderground v.1.12,2013-01-17 03:00:00,
2013-01-16 22:10:00,34.0,23.1,29.92,WNW,288,8.0,8.0,64,0.00,,,0.00,Wunderground v.1.12,2013-01-17 03:10:00,
2013-01-16 22:20:00,34.0,23.5,29.92,SW,234,8.0,8.0,65,0.00,,,0.00,Wunderground v.1.12,2013-01-17 03:20:00,
2013-01-16 22:30:00,34.0,24.2,29.92,WSW,248,8.0,26.0,67,0.00,,,0.00,Wunderground v.1.12,2013-01-17 03:30:00,
2013-01-16 22:40:00,34.0,24.2,29.92,SW,236,8.0,12.0,67,0.00,,,0.00,Wunderground v.1.12,2013-01-17 03:40:00,
2013-01-16 22:50:00,34.0,24.5,29.92,SW,219,9.0,11.0,68,0.00,,,0.00,Wunderground v.1.12,2013-01-17 03:50:00,
2013-01-16 23:00:00,34.0,24.5,29.92,WSW,248,9.0,22.0,68,0.00,,,0.00,Wunderground v.1.12,2013-01-17 04:00:00,
2013-01-16 23:10:00,34.0,24.9,29.92,SW,229,6.0,7.0,69,0.00,,,0.00,Wunderground v.1.12,2013-01-17 04:10:00,
2013-01-16 23:20:00,34.0,24.9,29.92,SSW,208,6.0,6.0,69,0.00,,,0.00,Wunderground v.1.12,2013-01-17 04:20:00,
2013-01-16 23:30:00,34.0,25.2,29.92,SW,225,7.0,18.0,70,0.00,,,0.00,Wunderground v.1.12,2013-01-17 04:30:00,
2013-01-16 23:40:00,34.0,25.6,29.92,WSW,239,6.0,6.0,71,0.00,,,0.00,Wunderground v.1.12,2013-01-17 04:40:00,
2013-01-16 23:50:00,34.0,25.6,29.93,WSW,256,7.0,12.0,71,0.00,,,0.00,Wunderground v.1.12,2013-01-17 04:50:00,